Simultaneous Nadir Overpasses (SNOs) Predictions

Prediction of SNOs between GOES-16 and AQUA Satellite Orbit:

Table of predicted SNOs for the next 14.0 days since TLE Epoch: 5/1/2021
Index Date Time (GOES-16) GOES-16 Lat,Lon AQUA Lat,Lon Distance(km) Time Diff (sec)
1 05/02/2021 06:17:13 -0.02, -75.19 -0.91, -70.91 486.96 80
2 05/02/2021 18:38:38 0.02, -75.20 -0.16, -76.11 103.23 80
3 05/04/2021 18:29:06 0.01, -75.21 0.47, -73.15 234.76 80
4 05/05/2021 06:50:21 -0.01, -75.22 0.62, -78.30 350.40 80
5 05/07/2021 06:38:08 -0.01, -75.24 0.04, -75.33 11.71 80
6 05/09/2021 06:23:16 -0.01, -75.27 -0.61, -72.38 328.43 80
7 05/09/2021 18:44:41 0.01, -75.27 -0.45, -77.58 261.53 80
8 05/11/2021 18:35:08 0.01, -75.31 0.15, -74.61 78.97 80
9 05/13/2021 18:22:56 0.01, -75.35 0.81, -71.66 419.75 80
10 05/14/2021 06:44:11 -0.01, -75.36 0.30, -76.81 164.48 80
